Kansas Department of Transportation
RWIS(Road and Runway Information System) Map and Weather Data





Station
Surface
Air
Wind
Site IDSensor TypeLocationTemperature (°F)Temperature (°F)Humidity (%)Speed (mi/h)Gusts (mi/h)DirectionTime
123002AtmosphericBonner Springs 307111NWFeb 18 2020 9:40PM
123002ApproachBonner Springs36     Feb 18 2020 9:40PM
123002DeckBonner Springs36     Feb 18 2020 9:40PM
123014AtmosphericBull Creek 346222ENEFeb 18 2020 9:40PM
123014DeckBull Creek34     Feb 18 2020 9:40PM
123014DepartureBull Creek36     Feb 18 2020 9:40PM
123015AtmosphericLeavenworth 365812NFeb 18 2020 9:40PM
123015DeckLeavenworth32     Feb 18 2020 9:40PM
123015DepartureLeavenworth36     Feb 18 2020 9:40PM
123020AtmosphericMayetta 345245NEFeb 18 2020 9:40PM
123020DeckMayettaUnavailable     Feb 18 2020 9:40PM
123020RoadwayMayettaUnavailable     Feb 18 2020 9:40PM
505000AtmosphericKTA 1 344712NNEFeb 18 2020 9:30PM
505000ApproachKTA 139     Feb 18 2020 9:40PM
505000DeckKTA 139     Feb 18 2020 9:40PM
505002AtmosphericKTA 3 287500SEFeb 18 2020 9:32PM
505002ApproachKTA 337     Feb 18 2020 9:32PM
505002DeckKTA 337     Feb 18 2020 9:32PM
505003AtmosphericKTA 4 305324NFeb 18 2020 9:32PM
505003ApproachKTA 434     Feb 18 2020 9:32PM
505003DeckKTA 436     Feb 18 2020 9:32PM
505004AtmosphericKTA 5 289822WNWFeb 18 2020 9:32PM
505004RoadwayKTA 536     Feb 18 2020 9:32PM
505004RoadwayKTA 536     Feb 18 2020 9:32PM
505005AtmosphericKTA 6 277412NNEFeb 18 2020 9:32PM
505005Approach KTA 636     Feb 18 2020 9:32PM
505005DeckKTA 634     Feb 18 2020 9:32PM
505006AtmosphericKTA 7 327511WFeb 18 2020 9:32PM
505006ApproachKTA 736     Feb 18 2020 9:32PM
505006DeckKTA 736     Feb 18 2020 9:32PM
505007AtmosphericKTA 8 366522NEFeb 18 2020 9:32PM
505007ApproachKTA 836     Feb 18 2020 9:32PM
505007DeckKTA 836     Feb 18 2020 9:32PM
505008AtmosphericKTA 9 327811NFeb 18 2020 9:32PM
505008ApproachKTA 939     Feb 18 2020 9:32PM
505008DeckKTA 934     Feb 18 2020 9:32PM
505009AtmosphericKTA 10 469211NFeb 18 2020 9:32PM
505009ApproachKTA 1032     Feb 18 2020 9:32PM
505009DeckKTA 1034     Feb 18 2020 9:32PM
505010AtmosphericWebb 345633NFeb 18 2020 9:40PM
505010DeckWebb36     Feb 18 2020 9:40PM
505010NullWebb37     Feb 18 2020 9:40PM
505014AtmosphericI-135 345912NEFeb 18 2020 9:35PM
505014ApproachI-13539     Feb 18 2020 9:40PM
505014DeckI-13539     Feb 18 2020 9:40PM
540000AtmosphericBlue Rapids 287212NFeb 18 2020 9:40PM
540000DeckBlue Rapids36     Feb 18 2020 9:40PM
540000DepartureBlue RapidsUnavailable     Feb 18 2020 9:40PM
540001AtmosphericSabetha 258122WFeb 18 2020 9:40PM
540001ApproachSabethaUnavailable     Feb 18 2020 9:40PM
540001DeckSabethaUnavailable     Feb 18 2020 9:40PM
540002AtmosphericWestgate 306200NWFeb 18 2020 9:40PM
540002DeckWestgate36     Feb 18 2020 9:40PM
540002DepartureWestgateUnavailable     Feb 18 2020 9:40PM
540003AtmosphericEmporia 434924ENEFeb 18 2020 6:00PM
540003ApproachEmporia48     Feb 18 2020 6:00PM
540003DeckEmporia46     Feb 18 2020 6:00PM
540005AtmosphericLawrence 326912WFeb 18 2020 9:40PM
540005ApproachLawrence34     Feb 18 2020 9:40PM
540005DeckLawrence34     Feb 18 2020 9:40PM
540006AtmosphericTroy 416611NFeb 18 2020 5:50PM
540006DeckTroy45     Feb 18 2020 5:50PM
540006DepartureTroy      Feb 18 2020 5:50PM
540007AtmosphericManhattan 326011ESEFeb 18 2020 9:40PM
540007DepartureManhattan37     Feb 18 2020 9:40PM
540007DeckManhattan36     Feb 18 2020 9:40PM
541000AtmosphericElkhart      Feb 18 2020 5:45PM
541000ApproachElkhart      Feb 18 2020 5:45PM
541000DeckElkhart      Feb 18 2020 5:45PM
541001AtmosphericSyracuse 3744611SSEFeb 18 2020 9:40PM
541001Out of Service for WinterSyracuse43     Feb 18 2020 9:40PM
541001DeckSyracuse41     Feb 18 2020 9:40PM
541003AtmosphericFord 286912EFeb 18 2020 9:40PM
541003DeckFord37     Feb 18 2020 9:40PM
541003DepartureFord37     Feb 18 2020 9:40PM
541004AtmosphericScott 286867SWFeb 18 2020 9:40PM
541004DepartureScott37     Feb 18 2020 9:40PM
541005AtmosphericNess 285523EFeb 18 2020 9:40PM
541005DeckNess37     Feb 18 2020 9:40PM
541005DepartureNess37     Feb 18 2020 9:40PM
543000AtmosphericJunction City 305701NNEFeb 18 2020 9:40PM
543000ApproachJunction City36     Feb 18 2020 9:40PM
543000DeckJunction City34     Feb 18 2020 9:40PM
543001AtmosphericEllsworth 364844SSEFeb 18 2020 9:40PM
543001RoadwayEllsworth37     Feb 18 2020 9:40PM
543003AtmosphericSalina 343700NFeb 18 2020 9:40PM
543003DepartureSalina39     Feb 18 2020 9:40PM
543003RoadwaySalina36     Feb 18 2020 9:40PM
543004AtmosphericConcordia 325424NNWFeb 18 2020 9:40PM
543004ApproachConcordia30     Feb 18 2020 9:40PM
543004DeckConcordia52     Feb 18 2020 9:40PM
543005AtmosphericPeabody 286400SSWFeb 18 2020 9:40PM
543005ApproachPeabody36     Feb 18 2020 9:40PM
543005DeckPeabodyUnavailable     Feb 18 2020 9:40PM
560000AtmosphericEdson 305346SFeb 18 2020 9:40PM
560000RoadwayEdson34     Feb 18 2020 9:40PM
560000RoadwayEdson34     Feb 18 2020 9:40PM
560001AtmosphericOakley 305566SEFeb 18 2020 9:40PM
560001ApproachOakley36     Feb 18 2020 9:40PM
560001DeckOakley36     Feb 18 2020 9:40PM
560002AtmosphericAtwood 285724SWFeb 18 2020 9:40PM
560002ApproachAtwood36     Feb 18 2020 9:40PM
560002DeckAtwoodUnavailable     Feb 18 2020 9:40PM
560003AtmosphericJennings 305924SFeb 18 2020 9:40PM
560003ApproachJennings34     Feb 18 2020 9:40PM
560003DeckJennings32     Feb 18 2020 9:40PM
560003DeckJennings32     Feb 18 2020 9:40PM
560004AtmosphericWakeeney 305445SEFeb 18 2020 9:40PM
560004ApproachWakeeney34     Feb 18 2020 9:40PM
560004DeckWakeeney34     Feb 18 2020 9:40PM
560005AtmosphericWalker 324623ESEFeb 18 2020 9:40PM
560005ApproachWalker37     Feb 18 2020 9:40PM
560005DeckWalker36     Feb 18 2020 9:40PM
560006AtmosphericBow Creek(Stockton) 274612SFeb 18 2020 9:40PM
560006ApproachBow Creek(Stockton)36     Feb 18 2020 9:40PM
560006DeckBow Creek(Stockton)34     Feb 18 2020 9:40PM
560008AtmosphericWallace 344923SEFeb 18 2020 9:40PM
560008ApproachWallace39     Feb 18 2020 9:40PM
560008DeckWallace37     Feb 18 2020 9:40PM
572000AtmosphericGreat Bend 345344SEFeb 18 2020 9:40PM
572000ApproachGreat Bend36     Feb 18 2020 9:40PM
572000DeckGreat Bend36     Feb 18 2020 9:40PM
572001AtmosphericPratt 254700NNEFeb 18 2020 9:40PM
572001ApproachPratt34     Feb 18 2020 9:40PM
572001DeckPratt36     Feb 18 2020 9:40PM
572002AtmosphericAnthony 366524NNEFeb 18 2020 9:40PM
572002ApproachAnthony39     Feb 18 2020 9:40PM
572002DeckAnthony39     Feb 18 2020 9:40PM
573000AtmosphericEureka 307111WNWFeb 18 2020 9:40PM
573000DeckEureka34     Feb 18 2020 9:40PM
573000DepartureEureka36     Feb 18 2020 9:40PM
573001AtmosphericGarnett 287211SWFeb 18 2020 9:40PM
573001ApproachGarnett32     Feb 18 2020 9:40PM
573001DeckGarnett36     Feb 18 2020 9:40PM
573003AtmosphericChetopa 348200NFeb 18 2020 9:40PM
573003DeckChetopa36     Feb 18 2020 9:40PM
573003DeckChetopa36     Feb 18 2020 9:40PM
573003DepartureChetopa37     Feb 18 2020 9:40PM
573004AtmosphericChanute 366624NEFeb 18 2020 9:40PM
573004ApproachChanute37     Feb 18 2020 9:40PM
573004DeckChanute36     Feb 18 2020 9:40PM